TimeEET,TemperatureF,Dew PointF,Humidity,Sea Level PressureIn,VisibilityMPH,Wind Direction,Wind SpeedMPH,Gust SpeedMPH,PrecipitationIn,Events,Conditions,WindDirDegrees,DateUTC
12:00 AM,55.4,35.6,47,30.06,-9999.0,North,5.8,-,N/A,,Clear,360,2012-12-12 22:00:00
1:00 AM,55.4,33.8,44,30.06,-9999.0,North,4.6,-,N/A,,Clear,360,2012-12-12 23:00:00
2:00 AM,54,33,32,30.08,0,North,4.6,,,,,10,2012-12-13 00:00:00
7:00 AM,50.0,33.8,54,30.09,-9999.0,North,4.6,-,N/A,,Clear,350,2012-12-13 05:00:00
8:00 AM,54,36,39,30.14,6,North,8.1,,,,,350,2012-12-13 06:00:00
8:00 AM,53.6,35.6,51,30.12,-9999.0,North,8.1,-,N/A,,Clear,350,2012-12-13 06:00:00
8:09 AM,53.6,35.6,51,30.12,-9999.0,North,8.1,-,N/A,,Clear,350,2012-12-13 06:09:00
9:00 AM,57.2,39.2,51,30.12,-9999.0,North,11.5,-,N/A,,Clear,350,2012-12-13 07:00:00
10:00 AM,62.6,39.2,42,30.15,-9999.0,North,12.7,-,N/A,,Clear,350,2012-12-13 08:00:00
11:00 AM,64.4,39.2,40,30.12,-9999.0,North,13.8,-,N/A,,Clear,360,2012-12-13 09:00:00
12:00 PM,68.0,37.4,33,30.09,-9999.0,North,11.5,-,N/A,,Clear,360,2012-12-13 10:00:00
1:00 PM,69.8,35.6,28,30.06,-9999.0,North,10.4,-,N/A,,Clear,360,2012-12-13 11:00:00
2:00 PM,70,33,16,30.04,6,NNW,8.1,,,,,340,2012-12-13 12:00:00
2:00 PM,69.8,33.8,27,30.04,-9999.0,NNW,8.1,-,N/A,,Clear,340,2012-12-13 12:00:00
5:00 PM,68.0,28.4,23,30.06,-9999.0,North,11.5,-,N/A,,Clear,350,2012-12-13 15:00:00
6:00 PM,66.2,28.4,24,30.06,-9999.0,North,8.1,-,N/A,,Clear,350,2012-12-13 16:00:00
7:00 PM,62.6,30.2,30,30.09,-9999.0,North,6.9,-,N/A,,Clear,360,2012-12-13 17:00:00
8:00 PM,61,32,22,30.12,6,North,9.2,,,,,350,2012-12-13 18:00:00
8:00 PM,60.8,32.0,34,30.09,-9999.0,North,9.2,-,N/A,,Clear,350,2012-12-13 18:00:00
9:00 PM,60.8,32.0,34,30.09,-9999.0,North,9.2,-,N/A,,Clear,350,2012-12-13 19:00:00
10:00 PM,59.0,32.0,36,30.12,-9999.0,North,8.1,-,N/A,,Clear,360,2012-12-13 20:00:00
11:00 PM,57.2,33.8,41,30.12,-9999.0,North,6.9,-,N/A,,Clear,360,2012-12-13 21:00:00